Notices

What's New in latest Release from April 7th, 2021:

- Updated Glossary, including Speed of Maximum Gust, and Total Hourly Precipitation

- Updated national and regional climate services offices contacts and prices information

- Addition of station inventory lists for 1981-2010, 1971-2000, and 1961-1990 Normals.

If you haven't already, please take our survey and provide feedback about our website: https://eccc.sondage-survey.ca/f/LanguageSelection.aspx?s=442ca660-fcf1-47c0-95a9-59707d6fd709

Hourly Data Report for April 04, 2016

MIRAMICHI RCS
NEW BRUNSWICK

47°00'34.000" N
65°27'54.000" W
33.00 m
8100989
71744
ACQ

Download Data

Hourly Data (April 2016)
Hourly Data Report for April 4, 2016
TIME
LST
Temp Definition
°C
Dew Point Definition
°C
Rel Hum Definition
%
Precip. Amount Definition
mm

Wind Dir Definition
10's deg

Wind Spd Definition
km/h
Visibility Definition
km
Stn Press Definition
kPa
Hmdx Definition


Wind Chill Definition


Weather Definition


00:00 -9.1 -17.0 53 0.0 28 28   99.81   -18 LegendNANA
01:00 -9.6 -17.8 51 0.0 28 27   99.99   -19 LegendNANA
02:00 -10.4 -17.5 56 0.0 28 28   100.12   -20 LegendNANA
03:00 -11.0 -19.5 50 0.0 27 36   100.23   -22 LegendNANA
04:00 -11.6 -18.8 56 0.2 27 32   100.33   -22 LegendNANA
05:00 -12.1 -20.4 50 0.0 27 26   100.46   -22 LegendNANA
06:00 -12.6 -20.7 51 0.0 26 25   100.58   -22 LegendNANA
07:00 -12.2 -20.1 52 0.0 27 21   100.70   -21 LegendNANA
08:00 -11.4 -21.0 45 0.0 27 25   100.82   -21 LegendNANA
09:00 -10.0 -19.8 44 0.0 28 26   100.88   -19 LegendNANA
10:00 -8.6 -19.9 40 0.0 27 27   100.93   -17 LegendNANA
11:00 -7.8 -19.8 38 0.0 26 27   100.94   -16 LegendNANA
12:00 -6.6 -19.3 36 0.0 25 28   100.93   -15 LegendNANA
13:00 -5.3 -18.7 34 0.0 26 27   100.95   -13 LegendNANA
14:00 -4.4 -17.9 34 0.0 25 27   100.97   -12 LegendNANA
15:00 -3.6 -19.0 29 0.0 26 27   100.97   -11 LegendNANA
16:00 -3.0 -18.7 29 0.0 29 18   100.99   -9 LegendNANA
17:00 -3.4 -19.2 28 0.0 28 20   101.04   -10 LegendNANA
18:00 -3.6 -19.1 29 0.0 28 18   101.11   -9 LegendNANA
19:00 -4.7 -19.4 31 0.0 29 10   101.19   -9 LegendNANA
20:00 -5.6 -18.7 35 0.0 29 11   101.32   -10 LegendNANA
21:00 -6.6 -18.8 37 0.0 30 8   101.41   -10 LegendNANA
22:00 -7.7 -19.3 39 0.0 31 9   101.50   -12 LegendNANA
23:00 -8.5 -18.8 43 0.0 30 8   101.57   -13 LegendNANA

Notes on Data Quality.

Legend

  • E = Estimated
  • M = Missing
  • NA = Not Available*
  • [empty] = Indicates an unobserved value
Date modified: